[[{"header":{"parameterUnit":"m.s-1","parameterCategory":1,"la1":30.2991,"la2":30.254,"lo1":-89.0895,"lo2":-89.0444,"dy":0.0017,"dx":0.0017,"nx":28,"ny":28,"refTime":"2025-05-31T03:00:00:Z","depth":0,"parameterNumber":2,"parameterNumberName":"U-component_of_WINDS"},"data":[0,0,0,0,0,0,0,0,0,0,0,0,0,0,0,0,0,0,0,0,0,0,0,0,0,0,0,0,0,0,0,0,0,0,0,0,0,0,0,0,0,0,0,0,0,0,0,0,0,0,0,0,0,0,0,0,0,0,0.7416,0.7417,0,0.746,0.746,0.7461,0.7476,0.7476,0.7476,0.7475,0.7519,0.7521,0.7522,0,0,0,0,0,0,0,0,0,0,0,0,0,0.7346,0.7347,0.7416,0.7417,0.7417,0.746,0.746,0.7461,0.7476,0.7476,0.7476,0.7475,0.7519,0.7521,0.7522,0,0,0,0,0,0,0,0,0,0,0,0,0,0.7381,0.7347,0.7416,0.743,0.7432,0.7459,0.746,0.7461,0.7476,0.7476,0.7475,0.7475,0.7519,0.752,0.7522,0.7539,0,0,0.7528,0.7529,0,0,0,0,0,0,0,0,0.7379,0.7384,0.7428,0.7429,0.7431,0.7462,0.7451,0.7487,0.7476,0.7459,0.7475,0.7475,0.7501,0.7504,0.7513,0.7541,0.7543,0.7529,0.753,0.7531,0.7531,0,0,0,0,0,0,0,0.7377,0.7382,0.7434,0.7428,0.743,0.7434,0.7439,0.7458,0.7481,0.7461,0.7462,0.7467,0.7502,0.7511,0.7514,0.7544,0.7529,0.753,0.7532,0.7532,0.7588,0.7588,0,0,0,0,0,0,0.7372,0.738,0.7432,0.7435,0.7404,0.7435,0.7441,0.7452,0.7481,0.7485,0.7467,0.7467,0.7507,0.7511,0.7515,0.7537,0.7531,0.7533,0.7534,0.7587,0.7588,0.7588,0,0,0,0,0,0,0.7371,0.7377,0.743,0.7408,0.7415,0.7437,0.745,0.7453,0.7463,0.7485,0.7489,0.7472,0.7507,0.7513,0.7533,0.7538,0.7533,0.7535,0.7587,0.7587,0.7588,0.7579,0,0,0,0,0,0,0.7368,0.7376,0.7383,0.7408,0.7416,0.7448,0.745,0.7454,0.7466,0.7467,0.7491,0.7495,0.7508,0.753,0.7535,0.7541,0.7537,0.7587,0.7587,0.7588,0.7579,0.7579,0.7579,0,0,0,0,0,0.7366,0.7379,0.7383,0.739,0.7425,0.7448,0.7453,0.7467,0.7466,0.7473,0.7488,0.7494,0.7537,0.7532,0.7538,0.7544,0.7586,0.7587,0.7588,0.7579,0.7579,0.7579,0,0,0,0,0,0,0.7355,0.7383,0.7388,0.7409,0.7426,0.7451,0.746,0.7467,0.7484,0.7484,0.7501,0.7506,0.7525,0.7537,0.7531,0.7562,0.7562,0.7564,0.7553,0.7554,0.7554,0.7551,0.7538,0,0,0,0,0,0.7355,0.7371,0.7395,0.7411,0.742,0.7438,0.7449,0.7458,0.7476,0.7483,0.7499,0.7516,0.7533,0.7544,0.7561,0.7581,0.7586,0.7588,0.7588,0.7588,0.7589,0.76,0.7601,0.759,0.759,0.759,0,0,0.7355,0.7372,0.7382,0.741,0.7424,0.744,0.7444,0.7461,0.7473,0.7486,0.7506,0.7518,0.7538,0.7558,0.7567,0.7568,0.7593,0.7589,0.7589,0.759,0.76,0.7601,0.7602,0.759,0.759,0.759,0,0,0.7364,0.7379,0.7394,0.7408,0.7429,0.7441,0.7445,0.7468,0.7476,0.7497,0.7506,0.752,0.7549,0.7563,0.7574,0.7586,0.7592,0.7591,0.7592,0.7602,0.7602,0.7603,0.7607,0.7608,0.7592,0.7592,0.7592,0,0.7362,0.7387,0.7401,0.7418,0.7429,0.7441,0.7456,0.7469,0.7494,0.7502,0.7502,0.7538,0.7552,0.7575,0.7578,0.7586,0.759,0.7589,0.7601,0.7602,0.7603,0.7607,0.7609,0.7592,0.7592,0.7592,0.7592,0,0.7383,0.74,0.7409,0.7434,0.7446,0.7462,0.7478,0.7489,0.7497,0.7508,0.7528,0.7546,0.7566,0.7572,0.758,0.7595,0.7595,0.7598,0.7599,0.7604,0.7608,0.7609,0.7591,0.7592,0.7592,0.7592,0,0,0.7387,0.7418,0.7421,0.7432,0.7455,0.7469,0.7484,0.7504,0.7513,0.7529,0.7542,0.7566,0.7569,0.7581,0.759,0.7599,0.7606,0.76,0.7601,0.7601,0.7624,0.7621,0.7623,0.761,0.7611,0.7611,0.7622,0,0.7399,0.7428,0.744,0.7463,0.7479,0.7489,0.7503,0.7518,0.7529,0.7543,0.7555,0.7572,0.7574,0.7581,0.759,0.7603,0.7611,0.7603,0.7622,0.7623,0.7617,0.7625,0.7623,0.7632,0.7623,0.7624,0.7624,0,0.7417,0.7433,0.7458,0.7478,0.7485,0.7497,0.7516,0.7529,0.7546,0.7554,0.7566,0.7575,0.7591,0.759,0.7612,0.7606,0.7614,0.7622,0.7623,0.7625,0.7624,0.7628,0.7636,0.7637,0.7627,0.7626,0.7626,0,0.7417,0.7445,0.7463,0.7472,0.7497,0.7505,0.7515,0.7532,0.7543,0.7559,0.7565,0.7583,0.7592,0.7605,0.7618,0.7616,0.7638,0.7639,0.7645,0.7644,0.7649,0.7649,0.7659,0.7654,0.7654,0.7654,0.7654,0,0.7429,0.7443,0.7463,0.7475,0.7491,0.7505,0.752,0.7531,0.7546,0.7559,0.7569,0.7581,0.7597,0.761,0.762,0.7636,0.7641,0.7647,0.7649,0.7646,0.7645,0.7652,0.7652,0.7655,0.7655,0.7655,0.7655,0,0.7432,0.7446,0.7466,0.7488,0.7493,0.7504,0.7522,0.7533,0.7544,0.756,0.7565,0.7582,0.7598,0.7612,0.7634,0.764,0.7657,0.766,0.7651,0.7652,0.7657,0.7657,0.7672,0.7675,0.7669,0.7669,0.7669,0,0.7438,0.745,0.7472,0.7482,0.7492,0.7507,0.7518,0.7532,0.7542,0.7562,0.757,0.7587,0.7602,0.7627,0.7641,0.7657,0.7661,0.7665,0.7663,0.7659,0.7661,0.766,0.7661,0.7665,0.7665,0.7665,0.7665,0,0.7449,0.7455,0.747,0.7488,0.75,0.7515,0.7529,0.7536,0.7552,0.7563,0.758,0.7591,0.7613,0.763,0.7647,0.7657,0.7664,0.7665,0.7668,0.7665,0.7659,0.7662,0.7651,0.7665,0.7665,0.7665,0.7665,0.7665,0.7454,0.7464,0.7481,0.7498,0.751,0.7523,0.7534,0.7546,0.756,0.7579,0.7586,0.7603,0.7619,0.7643,0.7653,0.7666,0.7667,0.767,0.7671,0.7672,0.7671,0.7657,0.7669,0.7669,0.7669,0.7669,0.7669,0,0.7464,0.7476,0.7491,0.7511,0.7523,0.7528,0.7544,0.7554,0.7569,0.7583,0.7597,0.7616,0.7631,0.7646,0.7662,0.767,0.7673,0.7674,0.7673,0.7676,0.7669,0.7666,0.7671,0.7671,0.7671,0.7671,0.7671,0.7671,0.7471,0.7489,0.7497,0.752,0.7531,0.7548,0.7557,0.7568,0.758,0.76,0.7613,0.7623,0.7637,0.7654,0.7669,0.7672,0.7678,0.7678,0.7682,0.7676,0.7676,0.7676,0.7673,0.7679,0.7679,0.7687,0.7687,0.7687]},{"header":{"parameterUnit":"m.s-1","parameterCategory":1,"la1":30.2991,"la2":30.254,"lo1":-89.0895,"lo2":-89.0444,"dy":0.0017,"dx":0.0017,"nx":28,"ny":28,"refTime":"2025-05-31T03:00:00:Z","depth":0,"parameterNumber":3,"parameterNumberName":"V-component_of_WINDS"},"data":[0,0,0,0,0,0,0,0,0,0,0,0,0,0,0,0,0,0,0,0,0,0,0,0,0,0,0,0,0,0,0,0,0,0,0,0,0,0,0,0,0,0,0,0,0,0,0,0,0,0,0,0,0,0,0,0,0,0,2.9812,2.9812,0,2.9808,2.9808,2.9808,2.9818,2.9818,2.9819,2.9819,2.9813,2.9812,2.9812,0,0,0,0,0,0,0,0,0,0,0,0,0,2.9829,2.9828,2.9812,2.9812,2.9812,2.9808,2.9808,2.9808,2.9818,2.9818,2.9819,2.9819,2.9813,2.9812,2.9812,0,0,0,0,0,0,0,0,0,0,0,0,0,2.9822,2.9828,2.9812,2.9817,2.9817,2.9808,2.9808,2.9808,2.9818,2.9818,2.9819,2.9819,2.9813,2.9813,2.9812,2.9797,0,0,2.981,2.9809,0,0,0,0,0,0,0,0,2.9823,2.9822,2.9816,2.9816,2.9817,2.9814,2.9811,2.9804,2.9818,2.9818,2.9819,2.982,2.9813,2.9812,2.981,2.9797,2.9797,2.981,2.9809,2.9809,2.9809,0,0,0,0,0,0,0,2.9823,2.9822,2.981,2.9816,2.9816,2.9819,2.9818,2.981,2.9812,2.9818,2.9818,2.9818,2.9813,2.9811,2.981,2.9797,2.981,2.9809,2.9808,2.9808,2.9772,2.9771,0,0,0,0,0,0,2.9823,2.9822,2.9811,2.981,2.9821,2.9818,2.9818,2.9814,2.9812,2.9813,2.9817,2.9818,2.9812,2.9811,2.981,2.9793,2.9809,2.9808,2.9808,2.9772,2.9772,2.9771,0,0,0,0,0,0,2.9824,2.9822,2.9811,2.9817,2.9815,2.9817,2.9813,2.9814,2.9812,2.9812,2.9813,2.9815,2.9812,2.9811,2.9801,2.9793,2.9808,2.9807,2.9773,2.9772,2.9771,2.9758,0,0,0,0,0,0,2.9824,2.9822,2.9817,2.9816,2.9815,2.9802,2.9813,2.9814,2.9811,2.9812,2.981,2.981,2.9812,2.9802,2.98,2.9792,2.9807,2.9774,2.9773,2.9772,2.9759,2.9757,2.9755,0,0,0,0,0,2.9825,2.9813,2.9816,2.9815,2.9808,2.9801,2.98,2.9804,2.981,2.9805,2.9805,2.981,2.9794,2.98,2.9799,2.979,2.9774,2.9773,2.9772,2.976,2.9758,2.9755,0,0,0,0,0,0,2.9812,2.9813,2.9817,2.9805,2.9803,2.9803,2.9796,2.9801,2.9797,2.9798,2.9802,2.9801,2.979,2.9789,2.9796,2.9776,2.9785,2.9783,2.9777,2.9774,2.9772,2.9773,2.9806,0,0,0,0,0,2.9807,2.9802,2.9803,2.9793,2.9792,2.9794,2.9791,2.9794,2.9792,2.9791,2.9791,2.9788,2.9782,2.9779,2.9773,2.976,2.9759,2.9753,2.9751,2.9749,2.9748,2.974,2.9738,2.9767,2.9767,2.9767,0,0,2.9799,2.9799,2.9795,2.979,2.9789,2.9783,2.9793,2.9786,2.9782,2.979,2.978,2.978,2.9777,2.9765,2.976,2.9764,2.974,2.9748,2.9746,2.9746,2.9739,2.9736,2.9734,2.9766,2.9766,2.9766,0,0,2.9779,2.9779,2.977,2.9769,2.9767,2.9769,2.9767,2.9767,2.9767,2.9758,2.9764,2.9758,2.9749,2.9746,2.9744,2.9725,2.9729,2.9723,2.9712,2.9705,2.9702,2.97,2.9693,2.9691,2.9722,2.9722,2.9722,0,2.9768,2.976,2.9765,2.9757,2.9755,2.9763,2.9754,2.9753,2.9749,2.9747,2.9752,2.9741,2.9739,2.9727,2.9723,2.9721,2.9718,2.9723,2.9703,2.97,2.9699,2.9692,2.9689,2.9721,2.9721,2.9721,2.9721,0,2.9746,2.974,2.9733,2.973,2.9727,2.9719,2.9723,2.9719,2.9722,2.9724,2.9714,2.9713,2.9708,2.9705,2.9708,2.9694,2.9696,2.9702,2.9711,2.9695,2.9689,2.9686,2.972,2.972,2.972,2.972,0,0,2.9717,2.9718,2.9715,2.9714,2.9714,2.9709,2.9701,2.9697,2.9694,2.9691,2.9685,2.9677,2.9682,2.968,2.9683,2.9677,2.9661,2.9683,2.9683,2.9679,2.9645,2.964,2.9637,2.9665,2.9664,2.9664,2.9645,0,2.9698,2.9685,2.969,2.9676,2.9671,2.9679,2.9672,2.9671,2.9672,2.9667,2.9669,2.9663,2.9671,2.9669,2.9664,2.9664,2.9654,2.9666,2.9658,2.9658,2.9658,2.9634,2.9629,2.961,2.9642,2.9642,2.9642,0,2.9673,2.9671,2.9657,2.9658,2.9656,2.9649,2.9646,2.9642,2.964,2.9642,2.9639,2.9644,2.9636,2.9646,2.9635,2.9643,2.964,2.964,2.9639,2.9638,2.9648,2.9631,2.9605,2.9602,2.9638,2.9638,2.9638,0,2.9653,2.9646,2.9637,2.9636,2.9637,2.9633,2.9633,2.9632,2.9629,2.9626,2.9625,2.9621,2.9618,2.9615,2.9618,2.9625,2.9607,2.9616,2.9607,2.9607,2.9602,2.9602,2.9575,2.9602,2.9602,2.9602,2.9602,0,2.9631,2.9622,2.9628,2.9623,2.9613,2.9619,2.9609,2.961,2.961,2.9604,2.9611,2.9605,2.961,2.9605,2.9608,2.9599,2.9597,2.9598,2.9599,2.9597,2.9597,2.9595,2.9596,2.9601,2.9601,2.9601,2.9601,0,2.9606,2.961,2.9601,2.9603,2.9603,2.9596,2.9597,2.9592,2.9594,2.9587,2.9586,2.9589,2.9584,2.9587,2.9581,2.9583,2.9571,2.9573,2.9571,2.9572,2.9562,2.9563,2.9531,2.9527,2.9557,2.9557,2.9557,0,2.9591,2.9585,2.9586,2.9583,2.9583,2.9578,2.9576,2.9581,2.9579,2.9577,2.9572,2.9567,2.9564,2.9555,2.9556,2.9552,2.9554,2.9543,2.9553,2.9552,2.9553,2.9553,2.9553,2.9541,2.9541,2.954,2.954,0,2.9564,2.9567,2.9563,2.956,2.9557,2.9555,2.9554,2.9551,2.9557,2.9553,2.9548,2.9545,2.954,2.9535,2.9532,2.9531,2.9536,2.9537,2.9535,2.9533,2.9532,2.9532,2.9565,2.9538,2.9538,2.9538,2.9538,2.9538,2.9543,2.9538,2.9539,2.9535,2.9534,2.9533,2.9528,2.953,2.9526,2.9523,2.9526,2.952,2.9519,2.9515,2.9515,2.951,2.9514,2.951,2.9509,2.9508,2.9507,2.9533,2.9509,2.9509,2.9509,2.9509,2.9509,0,2.9516,2.9517,2.9514,2.9512,2.9509,2.9515,2.9514,2.951,2.9505,2.9504,2.9501,2.9495,2.9491,2.9492,2.9488,2.9484,2.9486,2.9483,2.9483,2.9483,2.9503,2.9506,2.9481,2.9481,2.9481,2.9481,2.9481,2.9481,2.9502,2.9493,2.9496,2.9487,2.9488,2.9483,2.9482,2.948,2.948,2.9473,2.947,2.9471,2.9472,2.9468,2.9464,2.9465,2.9462,2.9458,2.9459,2.9478,2.9481,2.9484,2.9486,2.9458,2.9458,2.9439,2.9439,2.9439]}]]